sat.trackr.live / text

‹ back to catalog

POSAT-2

NORAD 63488 · 2025-009DR

PAYLOAD ACTIVE UNKNOWN

§ Identity

Operator
Country
POR
Launch date
2025-01-14
Launch site
AFWTR
Launch vehicle
Mass (kg)
RCS (m²)

External: N2YO · Heavens-Above · Gunter

§ Orbital elements

Epoch: 2026-05-25T04:03:01.711584Z

Period
95.22 min
Inclination
97.4849°
Eccentricity
0.0005787
Mean motion
15.12274167 rev/d
Perigee alt
525.3 km
Apogee alt
533.3 km
Semi-major
6,907.4 km
B*
6.9267e-4
RAAN
220.6561°
Arg perigee
210.8970°
Mean anomaly
149.1921°
Rev number
6,316

§ Raw data

POSAT-21 63488U 25009DR  26145.16876981  .00011934  00000+0  69267-3 0  99992 63488  97.4849 220.6561 0005787 210.8970 149.1921 15.12274167 63167

JSON: /api/v1/satellites/63488 · /tle

For live sub-satellite position, see the globe view (requires WebGL).

§ Visibility from observer

Set your observer location to see the next 7 days of passes ≥ 10°. The values pass through the URL so the page stays shareable.

No JS? Fill the form by hand. The geolocation button needs JavaScript.